Redding, CA

2:42 PM PST on November 18, 2019 (GMT -0800)
Redding Municipal

Weather History for KRDD - September, 2019

Change the Weather History Date:

Saturday, September 21, 2019

  Actual Average Record
Temperature  
Mean Temperature 76 °F -  
Max Temperature 90 °F 89 °F 108 °F (1987)
Min Temperature 62 °F 57 °F 44 °F (1924)
Degree Days  
Heating Degree Days 0    
Cooling Degree Days 11    
Growing Degree Days 26 (Base 50)    
Moisture  
Dew Point 43 °F    
Average Humidity 37    
Maximum Humidity 60    
Minimum Humidity 13    
Precipitation  
Precipitation 0.00 in 0.02 in 1.22 in (2013)
Month to date precipitation 0.24 0.40  
Year to date precipitation 32.51 21.53  
Sea Level Pressure  
Sea Level Pressure 29.93 in    
Wind  
Wind Speed 7 mph (North)    
Max Wind Speed 22 mph    
Max Gust Speed 29 mph    
Visibility 10 miles    
Events      
T = Trace of Precipitation, MM = Missing Value Source: NWS Daily Summary

Daily Weather History Graph

Daily Weather History Graph

Search for Another Location

Airport or City:

Astronomy

Sep. 21, 2019 Rise Set
Actual Time 6:55 AM PDT 7:08 PM PDT
Civil Twilight 6:28 AM PDT 7:35 PM PDT
Nautical Twilight 5:56 AM PDT 8:07 PM PDT
Astronomical Twilight 5:23 AM PDT 8:39 PM PDT
Moon 11:49 PM PDT (9/21) 2:08 PM PDT (9/21)
Length of Visible Light 13h 07m
Length of Day
12h 12m
Waning Gibbous, 53% of the Moon is Illuminated
Sep 21
Waning Gibbous
Sep 21
Last Quarter
Sep 28
New
Oct 5
First Quarter
Oct 13
Full

Hourly Weather History & Observations

Time (PDT) Temp. Dew Point Humidity Pressure Visibility Wind Dir Wind Speed Gust Speed Precip Events Conditions
12:53 AM 68.0 °F 46.9 °F 47% 29.98 in 10.0 mi Calm Calm - N/A   Clear
1:53 AM 68.0 °F 46.9 °F 47% 29.99 in 10.0 mi NNW 6.9 mph - N/A   Clear
2:53 AM 66.9 °F 46.9 °F 49% 29.99 in 10.0 mi North 5.8 mph - N/A   Clear
3:53 AM 66.9 °F 46.9 °F 49% 29.98 in 10.0 mi North 10.4 mph - N/A   Clear
4:53 AM 68.0 °F 46.0 °F 45% 29.98 in 10.0 mi North 10.4 mph - N/A   Clear
5:53 AM 62.1 °F 48.0 °F 60% 29.99 in 10.0 mi WNW 4.6 mph - N/A   Clear
6:53 AM 66.0 °F 46.0 °F 48% 30.00 in 10.0 mi NNW 6.9 mph - N/A   Clear
7:53 AM 68.0 °F 46.0 °F 45% 30.01 in 10.0 mi North 13.8 mph - N/A   Clear
8:53 AM 71.1 °F 46.0 °F 41% 30.01 in 10.0 mi North 15.0 mph 24.2 mph N/A   Clear
9:53 AM 75.0 °F 44.1 °F 33% 30.01 in 10.0 mi North 15.0 mph 21.9 mph N/A   Clear
10:53 AM 78.1 °F 43.0 °F 29% 29.99 in 10.0 mi NNW 9.2 mph 20.7 mph N/A   Clear
11:53 AM 81.0 °F 39.0 °F 22% 29.96 in 10.0 mi North 16.1 mph 28.8 mph N/A   Clear
12:53 PM 82.9 °F 37.0 °F 19% 29.94 in 10.0 mi North 12.7 mph 25.3 mph N/A   Clear
1:53 PM 84.9 °F 37.0 °F 18% 29.91 in 10.0 mi North 12.7 mph - N/A   Clear
2:53 PM 88.0 °F 36.0 °F 16% 29.88 in 10.0 mi NE 10.4 mph - N/A   Clear
3:53 PM 90.0 °F 36.0 °F 15% 29.87 in 10.0 mi North 9.2 mph - N/A   Clear
4:53 PM 90.0 °F 32.0 °F 13% 29.85 in 10.0 mi NNE 10.4 mph - N/A   Clear
5:53 PM 89.1 °F 34.0 °F 14% 29.84 in 10.0 mi Variable 5.8 mph - N/A   Clear
6:53 PM 84.9 °F 37.9 °F 19% 29.84 in 10.0 mi NE 3.5 mph - N/A   Clear
7:53 PM 75.0 °F 41.0 °F 29% 29.85 in 10.0 mi WSW 3.5 mph - N/A   Clear
8:53 PM 73.0 °F 45.0 °F 37% 29.87 in 10.0 mi NNE 4.6 mph - N/A   Clear
9:53 PM 69.1 °F 45.0 °F 42% 29.87 in 10.0 mi Calm Calm - N/A   Clear
10:53 PM 66.9 °F 45.0 °F 45% 29.88 in 10.0 mi Calm Calm - N/A   Clear
11:53 PM 63.0 °F 46.0 °F 54% 29.88 in 10.0 mi Calm Calm - N/A   Clear